Home   Weather   Thule Air Base   Past weeks
Flag for Greenland

Past Weather in Thule Air Base, Greenland — Yesterday and Last 2 Weeks

Now
7 °F

Frigid.


Feels Like: -12 °F
Forecast: -20 / -28 °F
Wind: 16 mph from North

Location: Kitsissut (Carey Oeer)

Current Time: Feb 18, 2019 at 2:19:28 am

Latest Report: Feb 18, 2019 at 1:00 am


Visibility: N/A

Pressure: 29.83 "Hg

Humidity: 64%

Dew Point: -3 °F

Location of Thule Air BaseLocation

Past Weather in Thule Air Base — Graph

°F

Thule Air Base Temperature Yesterday

Maximum temperature yesterday: 6 °F (at 11:00 pm)
Minimum temperature yesterday: -2 °F (at 3:00 am)
Average temperature yesterday: 1 °F

High & Low Weather Summary for the Past Weeks

 TemperatureHumidityPressure
High15 °F (Feb 8, 9:00 am)89% (Feb 12, 11:00 pm)30.24 "Hg (Feb 12, 11:00 pm)
Low-4 °F (Feb 4, 12:00 am)58% (Feb 8, 5:00 pm)29.65 "Hg (Feb 13, 1:00 am)
Average5 °F79%29.92 "Hg
* Reported Feb 3 12:00 am — Feb 18 12:00 am, Thule Air Base. Weather by CustomWeather, © 2019

Note: Actual official high and low records may vary slightly from our data, if they occured in-between our weather recording intervals... More about our weather records

Advertising

Thule Air Base Weather History for the Previous 24 Hours

Scroll right to see more
 ConditionsComfort  
Time TempWeatherWind HumidityBarometerVisibility
12:00 am
Mon, Feb 18
6 °FFrigid.17 mph63%29.85 "HgN/A
11:00 pm
Sun, Feb 17
6 °FFrigid.17 mph63%29.88 "HgN/A
10:00 pm6 °FFrigid.15 mph65%29.90 "HgN/A
9:00 pm5 °FFrigid.16 mph63%29.93 "HgN/A
8:00 pm5 °FFrigid.14 mph64%29.95 "HgN/A
7:00 pm5 °FFrigid.20 mph65%29.97 "HgN/A
6:00 pm5 °FFrigid.18 mph75%29.99 "HgN/A
5:00 pm4 °FFrigid.15 mph78%30.01 "HgN/A
4:00 pm4 °FFrigid.10 mph73%30.03 "HgN/A
3:00 pm3 °FFrigid.9 mph79%30.04 "HgN/A
2:00 pm-1 °FFrigid.3 mph74%30.06 "HgN/A
1:00 pm-1 °FFrigid.3 mph72%30.08 "HgN/A
12:00 pm-1 °FFrigid.5 mph74%30.11 "HgN/A
11:00 am0 °FFrigid.6 mph71%30.12 "HgN/A
10:00 am0 °FFrigid.7 mph75%30.14 "HgN/A
9:00 am-2 °FFrigid.7 mph69%30.16 "HgN/A
8:00 am-2 °FFrigid.5 mph74%30.17 "HgN/A
7:00 am0 °FFrigid.7 mph76%30.18 "HgN/A
6:00 am-1 °FFrigid.12 mph80%30.19 "HgN/A
5:00 am-2 °FFrigid.7 mph70%30.19 "HgN/A
4:00 am-2 °FFrigid.6 mph67%30.21 "HgN/A
3:00 am-2 °FFrigid.5 mph73%30.22 "HgN/A
2:00 am-1 °FFrigid.3 mph72%30.22 "HgN/A
Weather by CustomWeather, © 2019

See weather overview